Concordia, KS

10:55 AM CST on December 12, 2017 (GMT -0600)
Blosser Municipal

Weather History for KCNK - January, 2014

Change the Weather History Date:

Sunday, January 5, 2014

  Actual Average Record
Temperature  
Mean Temperature 7 °F 28 °F  
Max Temperature 16 °F 38 °F 66 °F (2012)
Min Temperature -3 °F 19 °F -18 °F (1924)
Degree Days  
Heating Degree Days 58 37  
Month to date heating degree days 247 185  
Since 1 July heating degree days 2474 2362  
Cooling Degree Days 0 0  
Month to date cooling degree days 0 0  
Year to date cooling degree days 0 0  
Moisture  
Dew Point -6 °F    
Average Humidity 60    
Maximum Humidity 73    
Minimum Humidity 46    
Precipitation  
Precipitation 0.00 in 0.01 in 0.73 in (1955)
Month to date precipitation 0.16 0.07  
Year to date precipitation 0.16 0.07  
Snow  
Snow 0.00 in 0.20 in 6.00 in (2005)
Month to date snowfall 2.0 0.8  
Year to date snowfall 2.0 0.8  
Since 1 July snowfall 8.3 7.3  
Snow Depth T in    
Sea Level Pressure  
Sea Level Pressure 30.46 in    
Wind  
Wind Speed 17 mph (North)    
Max Wind Speed 29 mph    
Max Gust Speed 34 mph    
Visibility 10 miles    
Events      
T = Trace of Precipitation, MM = Missing Value Source: NWS Daily Summary

Daily Weather History Graph

Daily Weather History Graph

Search for Another Location

Airport or City:

Trip Planner

Search our weather history database for the weather conditions in past years. The results will help you decide how hot, cold, wet, or windy it might be!

Date:

Astronomy

Jan. 05, 2014 Rise Set
Actual Time 7:51 AM CST 5:21 PM CST
Civil Twilight 7:21 AM CST 5:51 PM CST
Nautical Twilight 6:47 AM CST 6:24 PM CST
Astronomical Twilight 6:15 AM CST 6:57 PM CST
Moon 10:34 AM CST (1/5) 10:48 PM CST (1/5)
Length of Visible Light 10h 29m
Length of Day
9h 29m
Waxing Crescent, 25% of the Moon is Illuminated
Jan 5
Waxing Crescent
Jan 7
First Quarter
Jan 15
Full
Jan 23
Last Quarter
Jan 30
New

Hourly Weather History & Observations

Time (CST) Temp. Windchill Dew Point Humidity Pressure Visibility Wind Dir Wind Speed Gust Speed Precip Events Conditions
12:55 AM 15.1 °F -1.1 °F 3.9 °F 61% 30.22 in 10.0 mi North 17.3 mph 27.6 mph N/A   Overcast
1:55 AM 12.0 °F -6.0 °F -0.9 °F 56% 30.23 in 10.0 mi North 19.6 mph 28.8 mph N/A   Overcast
2:55 AM 10.9 °F -7.5 °F -2.0 °F 56% 30.26 in 10.0 mi North 19.6 mph 26.5 mph N/A   Overcast
3:55 AM 10.0 °F -8.1 °F -2.9 °F 56% 30.28 in 10.0 mi North 18.4 mph 32.2 mph N/A   Overcast
4:55 AM 9.0 °F -8.5 °F -2.0 °F 61% 30.29 in 10.0 mi North 16.1 mph - N/A   Mostly Cloudy
5:55 AM 8.1 °F -9.6 °F -4.0 °F 58% 30.32 in 10.0 mi North 16.1 mph 25.3 mph N/A   Partly Cloudy
6:55 AM 6.1 °F -13.3 °F -6.0 °F 58% 30.36 in 10.0 mi North 18.4 mph 26.5 mph N/A   Scattered Clouds
7:55 AM 6.1 °F -13.3 °F -6.0 °F 58% 30.38 in 10.0 mi North 18.4 mph 27.6 mph N/A   Clear
8:55 AM 5.0 °F -15.7 °F -6.0 °F 61% 30.41 in 10.0 mi North 20.7 mph - N/A   Clear
9:55 AM 6.1 °F -14.8 °F -9.9 °F 48% 30.44 in 10.0 mi North 21.9 mph 29.9 mph N/A   Clear
10:55 AM 9.0 °F -11.0 °F -6.0 °F 51% 30.47 in 10.0 mi North 21.9 mph 27.6 mph N/A   Mostly Cloudy
11:55 AM 9.0 °F -9.0 °F -5.1 °F 53% 30.46 in 10.0 mi North 17.3 mph 28.8 mph N/A   Overcast
12:55 PM 12.0 °F -5.6 °F -4.0 °F 49% 30.45 in 10.0 mi North 18.4 mph - N/A   Mostly Cloudy
1:55 PM 12.9 °F -4.4 °F -5.1 °F 45% 30.45 in 10.0 mi North 18.4 mph 29.9 mph N/A   Overcast
2:55 PM 14.0 °F -2.0 °F -4.0 °F 45% 30.48 in 10.0 mi North 16.1 mph 27.6 mph N/A   Mostly Cloudy
3:55 PM 12.0 °F -6.5 °F -4.0 °F 49% 30.52 in 10.0 mi North 20.7 mph 25.3 mph N/A   Mostly Cloudy
4:55 PM 12.0 °F -5.1 °F -2.9 °F 51% 30.55 in 10.0 mi North 17.3 mph 26.5 mph N/A   Overcast
5:55 PM 9.0 °F -7.3 °F -4.0 °F 56% 30.57 in 10.0 mi North 13.8 mph - N/A   Clear
6:55 PM 7.0 °F -10.4 °F -6.0 °F 55% 30.59 in 10.0 mi North 15.0 mph - N/A   Clear
7:55 PM 6.1 °F -11.6 °F -8.0 °F 53% 30.61 in 10.0 mi North 15.0 mph - N/A   Clear
8:55 PM 3.0 °F -17.3 °F -9.9 °F 55% 30.64 in 10.0 mi North 18.4 mph 26.5 mph N/A   Clear
9:55 PM -0.0 °F -18.7 °F -13.0 °F 54% 30.66 in 10.0 mi North 13.8 mph 23.0 mph N/A   Clear
10:55 PM -2.0 °F -20.5 °F -16.1 °F 51% 30.66 in 10.0 mi NNW 12.7 mph - N/A   Clear
11:55 PM -2.9 °F -19.8 °F -17.0 °F 51% 30.65 in 10.0 mi NW 10.4 mph - N/A   Clear